Other Public Products
Issued by NWS Grand Forks, ND

Home | Current Version | Previous Version | Text Only | Print | Product List | Glossary Off
Versions: 1 2 3 4 5 6 7 8 9 10 11 12 13 14 15 16 17 18 19 20 21 22 23 24 25 26 27 28 29 30 31 32 33 34 35 36 37 38 39 40 41 42 43 44 45 46 47 48 49 50

000
FPUS83 KFGF 170831
OPUFGF
PRAIRIE TO PINES WEATHER ROUNDUP
NATIONAL WEATHER SERVICE EASTERN NORTH DAKOTA/GRAND FORKS ND
300 AM CDT TUE OCT 17 2017

 **SATELLITE DATA USED TO AUGMENT SKY COVER AT AUTOMATED STATIONS**
 *****  WEATHER ACROSS EASTERN NORTH DAKOTA  *****

CITY           SKY/WX    TMP DP  RH WIND       PRES   REMARKS
GRAND FORKS    FAIR      39  34  82 SW5       29.90S
GRAND FORKS AF NOT AVBL
GRAND CITY NWS NOT AVBL
BUXTON           N/A     42  36  79 SW5         N/A
DEVILS LAKE    FAIR      42  37  82 CALM      29.91F
FARGO          FAIR      39  34  82 SW3       29.93S
WAHPETON ARPT  NOT AVBL
$$

 *****  WEATHER ACROSS CENTRAL AND WESTERN NORTH DAKOTA  *****

CITY           SKY/WX    TMP DP  RH WIND       PRES   REMARKS
JAMESTOWN      FAIR      42  33  70 NW5       29.94S
BISMARCK       FAIR      35  30  82 CALM      29.97F
MINOT          FAIR      48  33  56 S9        29.87F
MINOT AFB      CLEAR     48  32  53 SW12      29.84F
GARRISON         N/A     41  37  86 CALM      29.92S
WILLISTON      FAIR      40  32  73 SW7       29.89F
DICKINSON      FAIR      43  30  60 S9        29.95F
HETTINGER      FAIR      34  26  72 CALM      30.02F
$$

 *****  OTHER OBSERVATIONS NORTHEAST NORTH DAKOTA  *****

CITY           SKY/WX    TMP DP  RH WIND       PRES   REMARKS
WALHALLA       FAIR     N/A N/A N/A SW5       29.86S
LANGDON        FAIR      36  32  87 SW7       29.89F
CAVALIER       FAIR      43  36  75 W6        29.86S
GRAFTON        FAIR      37  32  81 S7        29.90S
CANDO          FAIR      32  32 100 S5        29.90F
FORT TOTTEN      N/A     43  32  65 SE3       29.95S
ROLLA          FAIR      41  32  70 SW9       29.87S
RUGBY          FAIR      41  34  75 S9        29.87F
 ***** THE ABOVE OBSERVATIONS ARE NON NWS ARE NOT QUALITY
        CONTROLLED AND MAY MIS-REPORT RAIN FOR SNOW...
$$

 *****  OTHER OBSERVATIONS SOUTHEAST NORTH DAKOTA *****

CITY           SKY/WX    TMP DP  RH WIND       PRES   REMARKS
COOPERSTOWN    FAIR      36  32  87 W7        29.93S
VALLEY CITY    FAIR      43  36  75 W7        29.95S
OAKES          NOT AVBL
GWINNER        SUNNY     39  36  87 SW3       29.96R
SHEYENNE NWR     N/A     41  36  81 W5        29.95S
BUFFALO          N/A     41  32  70 SW7         N/A
WYNDMERE       NOT AVBL
 ***** THE ABOVE OBSERVATIONS ARE NON NWS ARE NOT QUALITY
       CONTROLLED AND MAY MIS-REPORT RAIN FOR SNOW...
$$

  *****  WEATHER ACROSS NORTHERN MINNESOTA  *****

CITY           SKY/WX    TMP DP  RH WIND       PRES   REMARKS
FLAG ISLAND    FAIR      48  36  61 CALM      29.86R
WARROAD        FAIR      41  36  81 SW3       29.89S
ROSEAU           N/A     43  36  75 CALM      29.88F
HALLOCK        FAIR      36  30  80 SE5       29.87F
THF RVR FALLS  FAIR      44  34  67 CALM      29.91S
HALSTAD          N/A     36  30  80 S6          N/A
FOSSTON        FAIR      37  32  81 S6        29.93F
BAUDETTE       FAIR      47  35  63 W5        29.89R
WASKISH        FAIR      39  37  93 W3        29.91R
CROOKSTON      FAIR      36  30  80 S5        29.92S
$$
  *****  WEATHER ACROSS CENTRAL AND WEST MINNESOTA  *****

CITY           SKY/WX    TMP DP  RH WIND       PRES   REMARKS
BEMIDJI        FAIR      39  33  80 SW5       29.92S
PARK RAPIDS    FAIR      39  35  86 CALM      29.94R
WADENA         FAIR      39  37  93 CALM      29.95R
DETROIT LAKES  FAIR      41  41 100 CALM      29.95S
MOORHEAD       FAIR      37  36  93 SE3       29.95R
FERGUS FALLS   FAIR      43  39  87 CALM      29.96S
ELBOW LAKE     FAIR      42  41  96 CALM      29.96S
MORRIS MN      FAIR      39  37  93 CALM      29.95S
STAPLES        FAIR      41  37  87 CALM      29.95R
WHEATON        FAIR      46  37  71 SW5       29.97S
$$
  *****  WEATHER ELSEWHERE ACROSS MINNESOTA  *****

CITY           SKY/WX    TMP DP  RH WIND       PRES   REMARKS
DULUTH         FAIR      45  38  76 W9        29.91R
INTRNTL FALLS  FAIR      41  33  73 W5        29.88R
ELY            FAIR      43  36  75 CALM      29.88R
CLOQUET        FAIR      46  36  66 W7        29.91S
BRAINERD       FAIR      42  38  85 CALM      29.94S
HIBBING        FAIR      32  31  96 CALM      29.90R
ALEXANDRIA     FAIR      42  39  89 NW3       29.96S
SAINT CLOUD    FAIR      38  37  97 SE3       29.95S
MINNEAPOLIS    FAIR      52  41  66 SW3       29.98R
$$

  *****  WEATHER ACROSS SOUTH DAKOTA  *****

CITY           SKY/WX    TMP DP  RH WIND       PRES   REMARKS
SIOUX FALLS    FAIR      41  39  93 CALM      30.03R
BROOKINGS      FAIR      44  39  82 CALM      30.02S
WATERTOWN      FAIR      42  38  85 CALM      30.00R
HURON          FAIR      40  38  93 E6        30.02R
SISSETON         N/A     45  38  76 CALM      29.95S
ABERDEEN       FAIR      33  32  96 S7        29.99S
MITCHELL       FAIR      45  39  79 SW3       30.03R
PIERRE         FAIR      45  36  70 SW3       30.02S
MOBRIDGE       FAIR      37  32  82 E3        29.98F
RAPID CITY     FAIR      44  27  51 W8        30.09S
$$

  *****  SOME WEATHER IN NEARBY STATES *****

CITY           SKY/WX    TMP DP  RH WIND       PRES   REMARKS
GLASGOW MT     FAIR      49  27  42 VRB3      29.87S
GREAT FALLS MT FAIR      56  23  27 SW20      29.98S
CHEYENNE WY    FAIR      45  11  25 W16       30.27F
SCOTTSBLUFF NE FAIR      34  26  72 N8        30.18S
OMAHA NE       FAIR      49  41  74 S10       30.11S
DES MOINES IA  FAIR      54  40  59 S13       30.13R
DAVENPORT IA   FAIR      52  38  58 SW8       30.19S
CHICAGO IL     FAIR      50  37  61 SW10      30.19S
EAU CLAIRE WI  FAIR      42  38  85 SW3       29.98S
LA CROSSE WI   FAIR      53  42  66 E6        30.03S
$$

  *****  SOME NATIONAL WEATHER *****

CITY           SKY/WX    TMP DP  RH WIND       PRES   REMARKS
LA GUARDIA NY  FAIR      47  34  60 N9        30.24S
RALEIGH NC     FAIR      49  42  77 N5        30.25S
ATLANTA GA     FAIR      52  42  69 E10       30.23S
NEW ORLEANS LA FAIR      63  50  62 NE13      30.15F
OKLAHOMA CITY  FAIR      44  40  85 SE8       30.26F
ALBUQUERQUE NM FAIR      51  26  37 E6        30.36S
SALT LAKE CITY FAIR      43  34  70 S3        30.32S
LOS ANGELES CA FAIR      70  50  49 SE3       29.99F
BOISE ID       FAIR      43  30  60 E6        30.23F
SEATTLE WA     FAIR      51  47  86 S12       30.05F
$$

*** WEATHER ACROSS MANITOBA...SASKATCHEWAN AND ONTARIO ***
                ***ONTARIO***

CITY           SKY/WX    TMP DP  RH WIND       PRES   REMARKS
GERALDTON      CLEAR     46  37  71 W13G18    29.66F
THUNDER BAY    CLEAR     39  36  87 W7        29.79S
SIOUX LOOKOUT  CLEAR     46  36  66 W7        29.77S
TORONTO        PTCLDY    39  30  70 SW5       30.23F
BIG TROUT LK   LGT RAIN  39  37  93 NW21G31   29.53
PICKLE LAKE    NOT AVBL
DRYDEN         CLEAR     43  36  75 W8        29.82R
KENORA         CLEAR     46  36  66 W6        29.85R
$$
                *** MANITOBA***

CITY           SKY/WX    TMP DP  RH WIND       PRES   REMARKS
BRANDON        CLEAR     30  27  86 NW5       29.83S
DAUPHIN        PTCLDY    43  32  65 S5        29.78F
ISLAND LAKE    PTCLDY    39  32  75 NW15G22   29.74R
PILOT MOUND      N/A     34  28  80 SE8         N/A
THE PAS        CLOUDY    39  34  81 SE6       29.74R
THOMPSON       MOCLDY    30  28  93 VRB2      29.77
WINNIPEG       CLEAR     41  34  75 S5        29.85R
LYNN LAKE      CLOUDY    28  27  93 E7        29.71F WCI  21
CHURCHILL      CLOUDY    25  23  93 NW14      29.74R WCI  13
GILLAM         CLOUDY    32  28  86 N10       29.74R WCI  24
$$
                ***SASKATCHEWAN***

CITY           SKY/WX    TMP DP  RH WIND       PRES   REMARKS
ESTEVAN        CLEAR     46  32  57 SW14      29.80F
KINDERSLEY     CLEAR     50  32  50 W5        29.64R
LLOYDMINSTER   CLEAR     36  28  75 SW9       29.57S
PRINCE ALBERT  CLOUDY    43  30  61 E7        29.64F
REGINA         PTCLDY    46  30  53 SW12      29.71F
YORKTON        CLEAR     43  30  61 S10       29.70F



USA.gov is the U.S. government's official web portal to all federal, state and local government web resources and services.